FENGYUN 1C DEB

Satellite information

Favourite Embed

Satellite Type and Status

DEBRISIN ORBIT

Key statistics

Satellite FENGYUN 1C DEB at a glance.

Uptime

9667

Days in orbit

Revolutions

≈ 14.2

Per day

Orbit

SSO

Sun Synchronous Orbit

Inclination

99.2

Latest

Satellite identification and parameters

Extended collection of information and parameters for FENGYUN 1C DEB.

Object identification

Identified? True

Debris? True

Object name: FENGYUN 1C DEB

International designator: 1999-025MD

Object number (NORAD): 30004

Object ID (CCSDS): 30004

Country: PEOPLES REPUBLIC OF CHINA (PRC)

Current information (Y/N): Y

RCS size: SMALL

Orbital parameters

Period: 101.632 minutes

Inclination: 99.226 deg

SMA: 7214.094 km

Apoapsis: 864.292 km

Periapsis: 807.626 km

RAAN: 119.3594 deg

Eccentricy: 0.00392745

Argument of periapsis: 113.7976 deg

Mean anomaly: 39.6349 deg

Mean motion: 14.16870212 rev/day

Mean motion (dot): 0.00001915 rev/day2

B* drag term: 0.00097132897 1/REarth

Two-line elements (TLE)

Creation date: Oct. 27, 2025, 2:46 a.m.

Reference frame: TEME

Reference center: EARTH

Epoch: Oct. 26, 2025, 11:17 p.m. UTC

TLE line 0: 0 FENGYUN 1C DEB

TLE line 1: 1 30004U 99025MD 25299.97026169 .00001915 00000-0 97133-3 0 9991

TLE line 2: 2 30004 99.2260 119.3594 0039275 113.7976 39.6349 14.16870212966444

Live tracking on map

Real-time ground track for satellite FENGYUN 1C DEB.

In-orbit conjunctions

A list of the most updated potential collisions computed for object FENGYUN 1C DEB.

Target Orbit TCA Probability of collision Miss distance Type
SCOUT A DEB LEO 2025-09-19 09:54:15 0.000238555 139.0 (m) DEBRIS
DELTA 1 DEB SSO 2024-07-26 12:33:02 0.0002128087 207.0 (m) DEBRIS
COSMOS 1275 DEB LEO 2024-07-03 01:33:01 0.0001701043 395.0 (m) DEBRIS

Associated space launch

Chinese polar orbiting meteorological satellite

FENGYUN 1C DEB was lifted into orbit during the mission ‘Long March 4B | Feng Yun 1C’, on board a Long March 4B space rocket.

The launch took place on May 10, 1999, 1:33 a.m. from Launch Complex 7.

For more information about the launch, click the button.

Launch to space Long March 4B | Feng Yun 1C
Long March 4B | Feng Yun 1C

Agency: N/A

Status: Launch Successful

Launch date: May 10, 1999, 1:33 a.m. UTC

Rocket: Long March 4B

Launch pad: Launch Complex 7

Location: Taiyuan Satellite Launch Center, People's Republic of China

...

Latest news about this satellite

There are no fresh news available about this satellite. Check back as we update our databases every day.


Newsletter sign-up

Weekly statistics, charts and insights to help you stay on top of the space industry.